Location: ?????
(31.8092°N, 35.2590°E)
Time: 17:09:29
(UTC+00:00)

X-37B - Pass Details

Date: 01 October 2021
Orbit: 385 x 389 km, 45.0° (Epoch: 13 October)

Event Time Altitude Azimuth Distance (km) Brightness Sun altitude
Exits shadow 02:43:46 - 325° (NW) 1,850 3.7 -11.2°
Reaches altitude 10° 02:45:12 10° 340° (NNW) 1,411 3.2 -10.9°
Maximum altitude 02:47:19 16° 21° (NNE) 1,091 3.2 -10.5°
Drops below altitude 10° 02:49:26 10° 64° (ENE) 1,410 4.6 -10.0°
Sets 02:52:02 0° 86° (E) 2,264 6.9 -9.5°
